Apple Cup - Loft Setrtling 5-11-18

Station: loft Inventory - T Race

Distance: 10 Miles    

Release: 11-May-2018 09:00

Weather Release:    Arrival: Cool and Overcast

Wind at Release:     Wind at Arrival:

Temp at Release: °    Temp at Arrival: °

Lofts: 140

Birds: 437

Clocked: 433

732 Birds In The Loft! The rest will be settled soon!
Drops Pos Breeder Pigeon Name Color Sex Ent Arrival Speed To Win Eligible
404 Blaco & Williamson - CA 3888-AU18-COM BB H 5 11:38:40.64 110.917 00:09:59 Yes
405 Jing X Zheng - WA 18344-AU18-ARPU BCWF H 4 11:38:41.33 110.909 00:10:00 Yes
406 Kim Wong - VT 17417-AU18-ARPU BC H 3 11:38:44.27 110.875 00:10:03 Yes
407 Siguaraya & El Rey De Los Cielos - FL 29102-AU18-ARPU Blue Lable BB H 8 11:38:50.63 110.801 00:10:09 Yes
408 Frank Feenstra - MI 1905-AU18-GRM BC H 2 11:54:14.13 101.013 00:25:33 Yes
409 David Clausing - FL 0111-IF18-CLAU BB H 8 12:04:33.40 95.364 00:35:52 Yes
410 Horizon Loft - WA 1024-AU18-YAK RC H 2 12:04:45.46 95.260 00:36:04 Yes
411 3 K's Loft - CA 2094-AU18-SFR BB H 4 12:04:45.97 95.256 00:36:04 Yes
412 Floridian Loft - FL 2583-AU18-SCHE DEN 83 BC H 19 12:04:49.64 95.224 00:36:08 Yes
413 Alan Porter - WI 0426-AU18-RRR BC H 7 12:04:51.12 95.211 00:36:10 Yes
413 Racing Pigeon Mall - WA 0805-AU18-RPM BB H 3 12:04:51.21 95.211 00:36:10 Yes
415 Red Ass Ranch - TX 0273-AU18-RAR BC H 6 12:04:52.31 95.201 00:36:11 Yes
416 A P C Loft - TX 18086-AU18-APC BB H 10 12:04:53.51 95.191 00:36:12 Yes
417 Dj Loft Of Utah - UT 19401-AU18-ARPU Altas Esperanças x2 BB H 12 12:04:53.77 95.189 00:36:12 Yes
418 John Gutierrez - NM 0821-AU18-GUTZ BB H 3 12:05:00.40 95.132 00:36:19 Yes
419 Tierney Family Loft - MD 0150-AU18-TL BBWF H 3 12:05:02.94 95.110 00:36:21 Yes
420 Black Oak Loft - AR 0007-AU18-HYMS Black Oak 7 BB H 9 12:05:03.45 95.106 00:36:22 Yes
421 Yang Family Racing - CA 0012-AU18-YS 739 X 538 DC H 3 12:05:04.50 95.097 00:36:23 Yes
422 American Lofts - OR 2570-AU18-CORP GRIZ H 13 12:05:04.81 95.094 00:36:23 Yes
423 Bird Dog Syndicate 2 - CA 0103-AU18-BURG DC H 3 12:05:06.80 95.077 00:36:25 Yes
424 Kwan Loft - CA 0804-AU18-KWAN BB H 8 12:05:09.28 95.056 00:36:28 Yes
425 Miami Syndicate Loft - FL 1008-AU18-FMI BC H 19 12:05:13.10 95.023 00:36:32 Yes
426 Christopher Loft - UT 8427-AU18-GS BC H 6 12:05:17.06 94.989 00:36:36 Yes
427 Friends Of Fatima - BC 57706-AU18-ARPU BB H 3 12:05:19.18 94.971 00:36:38 Yes
428 Horizon Loft - WA 1043-AU18-YAK RB H 3 12:05:25.94 94.913 00:36:44 Yes
429 Miami Syndicate Loft - FL 4003-AU18-SCHE PIED H 20 12:05:31.41 94.867 00:36:50 Yes
430 Perrin - WA 4050-AU18-CORP BC H 2 12:05:39.88 94.795 00:36:58 Yes
431 Eastern Pearl Loft - VA 0381-AU18-EPL 🈚️量 381 BB H 7 12:28:09.57 84.551 00:59:28 Yes
432 David Clausing - FL 0115-IF18-CLAU BC H 9 12:38:46.78 80.446 01:10:05 Yes
433 Horse Heaven Hills - OR 0815-AU18-HHH BBWF H 8 12:38:48.30 80.437 01:10:07 Yes
434 L & L Breeding Station - WA 8251-AU18-LL Blue Skies BB H 3 12:38:59.15 80.370 01:10:18 Yes
435 Floridian Loft - FL 2585-AU18-SCHE DEN 85 BB H 20 12:39:05.18 80.334 01:10:24 Yes
436 Marengo Creek Farms - AL 3010-AU18-MCF BB H 8 12:40:02.59 79.984 01:11:21 Yes

There are 971 bird records

Note: These Race Results are unofficial and subject to change until verified by the Race Committee and declared final.